Powrót do katalogu

STARLINK-3045

AktywnyŁącznośćVLEO
NORAD 49173·PAYLOAD·🇺🇸 United States

Wystrzelony Sep 14, 2021 z Vandenberg Space Force Base

Loading…

Następne Przeloty (najbliższe 24 godziny)

TLE

ŚwieżeSource: CelesTrak SupGP

Epoka: Sep 14, 2026, 13:06 UTC

1 49173C 21082AV  26257.54631944  .00794010  00000+0  28398-1 0  2573
2 49173  69.9996 156.9402 0003258 265.8698 188.5218 15.28274444    18

Śledź STARLINK-3045 w czasie rzeczywistym z AllMySat

Download on the App Store